Вернуться в каталог

STARLINK-4153

АктивенСвязьVLEO
NORAD 53037·PAYLOAD·🇺🇸 United States

Запущен Jul 7, 2022 с Cape Canaveral Space Force Station

Loading…

Ближайшие Пролёты (ближайшие 24 часа)

TLE

СвежийSource: CelesTrak SupGP

Эпоха: Sep 15, 2026, 02:32 UTC

1 53037C 22076BD  26258.10604167  .00675300  00000+0  20177-1 0  2589
2 53037  53.1602 299.6233 0001292  86.8822 205.4186 15.33700934    11

Отслеживайте STARLINK-4153 в реальном времени с AllMySat

Download on the App Store